START_TIME,STEP,MOV.,M29,t_acc.,H22,t_acc.,H26,t_acc.,H30,t_acc.
1986-01-26 06:00:33.220 ,2,0,0.,24.0,0.,24.0,0.,24.0,0.,24.0
1986-01-26 06:00:57.220 ,1,1,0.,24.0,0.,24.0,0.,24.0,0.,24.0
1986-01-26 06:01:21.220 ,1,0,0.,24.0,0.,24.0,0.,24.0,0.,24.0
1986-01-26 06:01:45.220 ,0,1,0.,24.0,0.,24.0,0.,24.0,0.,24.0
1986-01-26 06:02:09.220 ,0,0,0.,24.0,0.,24.0,0.,24.0,0.,24.0
1986-01-26 06:02:33.220 ,0,1,0.,24.0,0.,24.0,0.,24.0,0.,24.0
1986-01-26 06:02:57.220 ,0,0,0.,24.0,0.,24.0,0.,24.0,0.,24.0
1986-01-26 06:03:21.220 ,1,1,0.,24.0,0.,24.0,0.,24.0,0.,24.0
1986-01-26 06:03:45.220 ,1,0,0.,24.0,0.,24.0,0.,24.0,0.,24.0
1986-01-26 06:04:09.220 ,2,1,0.,24.0,0.,24.0,0.,24.0,0.,24.0
1986-01-26 06:04:33.220 ,2,0,0.,24.0,0.,24.0,0.,24.0,0.,24.0
1986-01-26 06:04:57.220 ,3,1,0.,24.0,0.,24.0,0.,24.0,0.,24.0
1986-01-26 06:05:21.220 ,3,0,0.,24.0,0.,24.0,0.,24.0,0.,24.0
1986-01-26 06:05:45.220 ,4,1,0.,24.0,0.,24.0,0.,24.0,0.,24.0
1986-01-26 06:06:09.220 ,4,0,0.,24.0,0.,24.0,0.,24.0,0.,24.0
1986-01-26 06:06:33.220 ,5,1,0.,24.0,0.,24.0,0.,24.0,0.,24.0
1986-01-26 06:06:57.220 ,5,0,0.,24.0,0.,24.0,0.,24.0,0.,24.0
1986-01-26 06:07:21.220 ,6,1,0.,24.0,0.,24.0,0.,24.0,0.,24.0
1986-01-26 06:07:45.220 ,6,0,0.,24.0,0.,24.0,0.,24.0,0.,24.0
1986-01-26 06:08:09.220 ,7,1,0.,24.0,0.,24.0,0.,24.0,0.,24.0
1986-01-26 06:08:33.220 ,7,0,0.,24.0,0.,24.0,0.,24.0,0.,24.0
1986-01-26 06:08:57.220 ,7,1,0.,24.0,0.,24.0,0.,24.0,0.,24.0
1986-01-26 06:09:21.220 ,7,0,0.,24.0,0.,24.0,0.,24.0,0.,24.0
1986-01-26 06:09:45.220 ,6,1,0.,24.0,0.,24.0,0.,24.0,0.,24.0
1986-01-26 06:10:09.220 ,6,0,0.,24.0,0.,24.0,0.,24.0,0.,24.0
1986-01-26 06:10:33.220 ,5,1,0.,24.0,0.,24.0,0.,24.0,0.,24.0
1986-01-26 06:10:57.220 ,5,0,0.,24.0,0.,24.0,0.,24.0,0.,24.0
1986-01-26 06:11:21.220 ,4,1,0.,24.0,0.,24.0,0.,24.0,0.,24.0
1986-01-26 06:11:45.220 ,4,0,0.,24.0,0.,24.0,0.,24.0,0.,24.0
1986-01-26 06:12:09.220 ,3,1,0.,24.0,0.,24.0,0.,24.0,0.,24.0
1986-01-26 06:12:33.220 ,3,0,0.,24.0,0.,24.0,0.,24.0,0.,24.0
1986-01-26 06:12:57.220 ,2,1,0.,24.0,0.,24.0,0.,24.0,0.,24.0
1986-01-26 06:13:21.220 ,2,0,0.,24.0,0.,24.0,0.,24.0,0.,24.0
1986-01-26 06:13:45.220 ,1,1,0.,24.0,0.,24.0,0.,24.0,0.,24.0
1986-01-26 06:14:09.220 ,1,0,0.,24.0,0.,24.0,0.,24.0,0.,24.0
1986-01-26 06:14:33.220 ,0,1,0.,24.0,0.,24.0,0.,24.0,0.,24.0
1986-01-26 06:14:57.220 ,0,0,0.,24.0,0.,24.0,0.,24.0,0.,24.0
1986-01-26 06:15:21.220 ,0,1,0.,24.0,0.,24.0,0.,24.0,0.,24.0
1986-01-26 06:15:45.220 ,0,0,0.,24.0,0.,24.0,0.,24.0,0.,24.0
1986-01-26 06:16:09.220 ,1,1,0.,24.0,0.,24.0,0.,24.0,0.,24.0
1986-01-26 06:16:33.220 ,1,0,0.,24.0,0.,24.0,0.,24.0,0.,24.0
1986-01-26 06:16:57.220 ,2,1,0.,24.0,0.,24.0,0.,24.0,0.,24.0
1986-01-26 06:17:21.220 ,2,0,0.,24.0,0.,24.0,0.,24.0,0.,24.0
1986-01-26 06:17:45.220 ,3,1,0.,24.0,0.,24.0,0.,24.0,0.,24.0
1986-01-26 06:18:09.220 ,3,0,0.,24.0,0.,24.0,0.,24.0,0.,24.0
1986-01-26 06:18:33.220 ,4,1,0.,24.0,0.,24.0,0.,24.0,0.,24.0
1986-01-26 06:18:57.220 ,4,0,0.,24.0,0.,24.0,0.,24.0,0.,24.0
1986-01-26 06:19:21.220 ,5,1,0.,24.0,0.,24.0,0.,24.0,0.,24.0
1986-01-26 06:19:45.220 ,5,0,0.,24.0,0.,24.0,0.,24.0,0.,24.0
1986-01-26 06:20:09.220 ,6,1,0.,24.0,0.,24.0,0.,24.0,0.,24.0
1986-01-26 06:20:33.220 ,6,0,0.,24.0,0.,24.0,0.,24.0,0.,24.0
1986-01-26 06:20:57.220 ,7,1,0.,24.0,0.,24.0,0.,24.0,0.,24.0
1986-01-26 06:21:21.220 ,7,0,0.,24.0,0.,24.0,0.,24.0,0.,24.0
1986-01-26 06:21:45.220 ,7,1,0.,24.0,0.,24.0,0.,24.0,0.,24.0
1986-01-26 06:22:09.220 ,7,0,0.,24.0,0.,24.0,0.,24.0,0.,24.0
1986-01-26 06:22:33.220 ,6,1,0.,24.0,0.,24.0,0.,24.0,0.,24.0
1986-01-26 06:22:57.220 ,6,0,0.,24.0,0.,24.0,0.,24.0,0.,24.0
1986-01-26 06:23:21.220 ,5,1,0.,24.0,0.,24.0,0.,24.0,0.,24.0
1986-01-26 06:23:45.220 ,5,0,0.,24.0,0.,24.0,0.,24.0,0.,24.0
1986-01-26 06:24:09.220 ,4,1,0.,24.0,0.,24.0,0.,24.0,0.,24.0
1986-01-26 06:24:33.220 ,4,0,0.,24.0,0.,24.0,0.,24.0,0.,24.0
1986-01-26 06:24:57.220 ,3,1,0.,24.0,0.,24.0,0.,24.0,0.,24.0
1986-01-26 06:25:21.220 ,3,0,0.,24.0,0.,24.0,0.,24.0,0.,24.0
1986-01-26 06:25:45.220 ,2,1,0.,24.0,0.,24.0,0.,24.0,0.,24.0
1986-01-26 06:26:09.220 ,2,0,0.,24.0,0.,24.0,0.,24.0,0.,24.0
1986-01-26 06:26:33.220 ,1,1,0.,24.0,0.,24.0,0.,24.0,0.,24.0
1986-01-26 06:26:57.220 ,1,0,0.,24.0,0.,24.0,0.,24.0,0.,24.0
1986-01-26 06:27:21.220 ,0,1,0.,24.0,0.,24.0,0.,24.0,0.,24.0
1986-01-26 06:27:45.220 ,0,0,0.,24.0,0.,24.0,0.,24.0,0.,24.0
1986-01-26 06:28:09.220 ,0,1,0.,24.0,0.,24.0,0.,24.0,0.,24.0
1986-01-26 06:28:33.220 ,0,0,0.,24.0,0.,24.0,0.,24.0,0.,24.0
1986-01-26 06:28:57.220 ,1,1,0.,24.0,0.,24.0,0.,24.0,0.,24.0
1986-01-26 06:29:21.220 ,1,0,0.,24.0,0.,24.0,0.,24.0,0.,24.0
1986-01-26 06:29:45.220 ,2,1,0.,24.0,0.,24.0,0.,24.0,0.,24.0
1986-01-26 06:30:09.220 ,2,0,0.,24.0,0.,24.0,0.,24.0,0.,24.0
1986-01-26 06:30:33.220 ,3,1,0.,24.0,0.,24.0,0.,24.0,0.,24.0
1986-01-26 06:30:57.220 ,3,0,0.,24.0,0.,24.0,0.,24.0,0.,24.0
1986-01-26 06:31:21.220 ,4,1,0.,24.0,0.,24.0,0.,24.0,0.,24.0
1986-01-26 06:31:45.220 ,4,0,0.,24.0,0.,24.0,0.,24.0,0.,24.0
1986-01-26 06:32:09.220 ,5,1,0.,24.0,0.,24.0,0.,24.0,0.,24.0
1986-01-26 06:32:33.220 ,5,0,0.,24.0,0.,24.0,0.,24.0,0.,24.0
1986-01-26 06:32:57.220 ,6,1,0.,24.0,0.,24.0,0.,24.0,0.,24.0
1986-01-26 06:33:21.220 ,6,0,0.,24.0,0.,24.0,0.,24.0,0.,24.0
1986-01-26 06:33:45.220 ,7,1,0.,24.0,0.,24.0,0.,24.0,0.,24.0
1986-01-26 06:34:09.220 ,7,0,0.,24.0,0.,24.0,0.,24.0,0.,24.0
1986-01-26 06:34:33.220 ,7,1,0.,24.0,0.,24.0,0.,24.0,0.,24.0
1986-01-26 06:34:57.220 ,7,0,0.,24.0,0.,24.0,0.,24.0,0.,24.0
1986-01-26 06:35:21.220 ,6,1,0.,24.0,0.,24.0,0.,24.0,0.,24.0
1986-01-26 06:35:45.220 ,6,0,0.,24.0,0.,24.0,0.,24.0,0.,24.0
1986-01-26 06:36:09.220 ,5,1,0.,24.0,0.,24.0,0.,24.0,0.,24.0
1986-01-26 06:36:33.220 ,5,0,0.,24.0,0.,24.0,0.,24.0,0.,24.0
1986-01-26 06:36:57.220 ,4,1,0.,24.0,0.,24.0,0.,24.0,0.,24.0
1986-01-26 06:37:21.220 ,4,0,0.,24.0,0.,24.0,0.,24.0,0.,24.0
1986-01-26 06:37:45.220 ,3,1,0.,24.0,0.,24.0,0.,24.0,0.,24.0
1986-01-26 06:38:09.220 ,3,0,0.,24.0,0.,24.0,0.,24.0,0.,24.0
1986-01-26 06:38:33.220 ,2,1,0.,24.0,0.,24.0,0.,24.0,0.,24.0
1986-01-26 06:38:57.220 ,2,0,0.,24.0,0.,24.0,0.,24.0,0.,24.0
1986-01-26 06:39:21.220 ,1,1,0.,24.0,0.,24.0,0.,24.0,0.,24.0
1986-01-26 06:39:45.220 ,1,0,0.,24.0,0.,24.0,0.,24.0,0.,24.0
1986-01-26 06:40:09.220 ,0,1,0.,24.0,0.,24.0,0.,24.0,0.,24.0
1986-01-26 06:40:33.220 ,0,0,0.,24.0,0.,24.0,0.,24.0,0.,24.0
1986-01-26 06:40:57.220 ,0,1,0.,24.0,0.,24.0,0.,24.0,0.,24.0
1986-01-26 06:41:21.220 ,0,0,0.,24.0,0.,24.0,0.,24.0,0.,24.0
1986-01-26 06:41:45.220 ,1,1,0.,24.0,0.,24.0,0.,24.0,0.,24.0
1986-01-26 06:42:09.220 ,1,0,0.,24.0,0.,24.0,0.,24.0,0.,24.0
1986-01-26 06:42:33.220 ,2,1,0.,24.0,0.,24.0,0.,24.0,0.,24.0
1986-01-26 06:42:57.220 ,2,0,0.,24.0,0.,24.0,0.,24.0,0.,24.0
1986-01-26 06:43:21.220 ,3,1,0.,24.0,0.,24.0,0.,24.0,0.,24.0
1986-01-26 06:43:45.220 ,3,0,0.,24.0,0.,24.0,0.,24.0,0.,24.0
1986-01-26 06:44:09.220 ,4,1,0.,24.0,0.,24.0,0.,24.0,0.,24.0
1986-01-26 06:44:33.220 ,4,0,0.,24.0,0.,24.0,0.,24.0,0.,24.0
1986-01-26 06:44:57.220 ,5,1,0.,24.0,0.,24.0,0.,24.0,0.,24.0
1986-01-26 06:45:21.220 ,5,0,0.,24.0,0.,24.0,0.,24.0,0.,24.0
1986-01-26 06:45:45.220 ,6,1,0.,24.0,0.,24.0,0.,24.0,0.,24.0
1986-01-26 06:46:09.220 ,6,0,0.,24.0,0.,24.0,0.,24.0,0.,24.0
1986-01-26 06:46:33.220 ,7,1,0.,24.0,0.,24.0,0.,24.0,0.,24.0
1986-01-26 06:46:57.220 ,7,0,0.,24.0,0.,24.0,0.,24.0,0.,24.0
1986-01-26 06:47:21.220 ,7,1,0.,24.0,0.,24.0,0.,24.0,0.,24.0
1986-01-26 06:47:45.220 ,7,0,0.,24.0,0.,24.0,0.,24.0,0.,24.0
1986-01-26 06:48:09.220 ,6,1,0.,24.0,0.,24.0,0.,24.0,0.,24.0
1986-01-26 06:48:33.220 ,6,0,0.,24.0,0.,24.0,0.,24.0,0.,24.0
1986-01-26 06:48:57.220 ,5,1,0.,24.0,0.,24.0,0.,24.0,0.,24.0
1986-01-26 06:49:21.220 ,5,0,0.,24.0,0.,24.0,0.,24.0,0.,24.0
1986-01-26 06:49:45.220 ,4,1,0.,24.0,0.,24.0,0.,24.0,0.,24.0
1986-01-26 06:50:09.220 ,4,0,0.,24.0,0.,24.0,0.,24.0,0.,24.0
1986-01-26 06:50:33.220 ,3,1,0.,24.0,0.,24.0,0.,24.0,0.,24.0
1986-01-26 06:50:57.220 ,3,0,0.,24.0,0.,24.0,0.,24.0,0.,24.0
1986-01-26 06:51:21.220 ,2,1,0.,24.0,0.,24.0,0.,24.0,0.,24.0
1986-01-26 06:51:45.220 ,2,0,0.,24.0,0.,24.0,0.,24.0,0.,24.0
1986-01-26 06:52:09.220 ,1,1,0.,24.0,0.,24.0,0.,24.0,0.,24.0
1986-01-26 06:52:33.220 ,1,0,0.,24.0,0.,24.0,0.,24.0,0.,24.0
1986-01-26 06:52:57.220 ,0,1,0.,24.0,0.,24.0,0.,24.0,0.,24.0
1986-01-26 06:53:21.220 ,0,0,0.,24.0,0.,24.0,0.,24.0,0.,24.0
1986-01-26 06:53:45.210 ,0,1,0.,24.0,0.,24.0,0.,24.0,0.,24.0
1986-01-26 06:54:09.210 ,0,0,0.,24.0,0.,24.0,0.,24.0,0.,24.0
1986-01-26 06:54:33.210 ,1,1,0.,24.0,0.,24.0,0.,24.0,0.,24.0
1986-01-26 06:54:57.210 ,1,0,0.,24.0,0.,24.0,0.,24.0,0.,24.0
1986-01-26 06:55:21.210 ,2,1,0.,24.0,0.,24.0,0.,24.0,0.,24.0
1986-01-26 06:55:45.210 ,2,0,0.,24.0,0.,24.0,0.,24.0,0.,24.0
1986-01-26 06:56:09.210 ,3,1,0.,24.0,0.,24.0,0.,24.0,0.,24.0
1986-01-26 06:56:33.210 ,3,0,0.,24.0,0.,24.0,0.,24.0,0.,24.0
1986-01-26 06:56:57.210 ,4,1,0.,24.0,0.,24.0,0.,24.0,0.,24.0
1986-01-26 06:57:21.210 ,4,0,0.,24.0,0.,24.0,0.,24.0,0.,24.0
1986-01-26 06:57:45.210 ,5,1,0.,24.0,0.,24.0,0.,24.0,0.,24.0
1986-01-26 06:58:09.210 ,5,0,0.,24.0,0.,24.0,0.,24.0,0.,24.0
1986-01-26 06:58:33.210 ,6,1,0.,24.0,0.,24.0,0.,24.0,0.,24.0
1986-01-26 06:58:57.210 ,6,0,0.,24.0,0.,24.0,0.,24.0,0.,24.0
1986-01-26 06:59:21.210 ,7,1,0.,24.0,0.,24.0,0.,24.0,0.,24.0
1986-01-26 06:59:45.210 ,0,0,0.,24.0,0.,24.0,0.,24.0,0.,24.0
1986-01-26 07:20:56.010 ,0,0,,0,,0,,0,,0
1986-01-26 07:20:57.210 ,0,0,0.,24.0,0.,24.0,0.,24.0,0.,24.0
1986-01-26 07:21:21.210 ,0,0,0.,24.0,0.,24.0,0.,24.0,0.,24.0
1986-01-26 07:21:45.210 ,3,1,0.,24.0,0.,24.0,0.,24.0,0.,24.0
1986-01-26 07:22:09.210 ,3,0,0.,24.0,0.,24.0,0.,24.0,0.,24.0
1986-01-26 07:22:33.210 ,4,1,0.,24.0,0.,24.0,0.,24.0,0.,24.0
1986-01-26 07:22:57.210 ,4,0,0.,24.0,0.,24.0,0.,24.0,0.,24.0
1986-01-26 07:23:21.210 ,5,1,0.,24.0,0.,24.0,0.,24.0,0.,24.0
1986-01-26 07:23:45.210 ,5,0,0.,24.0,0.,24.0,0.,24.0,0.,24.0
1986-01-26 07:24:09.210 ,6,1,0.,24.0,0.,24.0,0.,24.0,0.,24.0
1986-01-26 07:24:33.210 ,6,0,0.,24.0,0.,24.0,0.,24.0,0.,24.0
1986-01-26 07:24:57.210 ,7,1,0.,24.0,0.,24.0,0.,24.0,0.,24.0
1986-01-26 07:25:21.210 ,7,0,0.,24.0,0.,24.0,0.,24.0,0.,24.0
1986-01-26 07:25:45.210 ,7,1,0.,24.0,0.,24.0,0.,24.0,0.,24.0
1986-01-26 07:26:09.210 ,7,0,0.,24.0,0.,24.0,0.,24.0,0.,24.0
1986-01-26 07:26:09.210 ,7,0,0.,24.0,0.,24.0,0.,24.0,0.,24.0
1986-01-26 07:26:33.210 ,6,1,0.,24.0,0.,24.0,0.,24.0,0.,24.0
1986-01-26 07:26:57.210 ,6,0,0.,24.0,0.,24.0,0.,24.0,0.,24.0
1986-01-26 07:27:21.210 ,5,1,0.,24.0,0.,24.0,0.,24.0,0.,24.0
1986-01-26 07:27:45.210 ,5,0,0.,24.0,0.,24.0,0.,24.0,0.,24.0
1986-01-26 07:28:09.210 ,4,1,0.,24.0,0.,24.0,0.,24.0,0.,24.0
1986-01-26 07:28:33.210 ,4,0,0.,24.0,0.,24.0,0.,24.0,0.,24.0
1986-01-26 07:28:57.210 ,3,1,0.,24.0,0.,24.0,0.,24.0,0.,24.0
1986-01-26 07:29:21.210 ,3,0,0.,24.0,0.,24.0,0.,24.0,0.,24.0
1986-01-26 07:29:45.210 ,2,1,0.,24.0,0.,24.0,0.,24.0,0.,24.0
1986-01-26 07:30:09.210 ,2,0,0.,24.0,0.,24.0,0.,24.0,0.,24.0
1986-01-26 07:30:33.210 ,1,1,0.,24.0,0.,24.0,0.,24.0,0.,24.0
1986-01-26 07:30:57.210 ,1,0,0.,24.0,0.,24.0,0.,24.0,0.,24.0
1986-01-26 07:31:21.210 ,0,1,0.,24.0,0.,24.0,0.,24.0,0.,24.0
1986-01-26 07:31:45.210 ,0,0,0.,24.0,0.,24.0,0.,24.0,0.,24.0
1986-01-26 07:32:09.210 ,0,1,0.,24.0,0.,24.0,0.,24.0,0.,24.0
1986-01-26 07:32:33.210 ,0,0,0.,24.0,0.,24.0,0.,24.0,0.,24.0
1986-01-26 07:32:57.210 ,1,1,0.,24.0,0.,24.0,0.,24.0,0.,24.0
1986-01-26 07:33:21.210 ,1,0,0.,24.0,0.,24.0,0.,24.0,0.,24.0
1986-01-26 07:33:45.210 ,2,1,0.,24.0,0.,24.0,0.,24.0,0.,24.0
1986-01-26 07:34:09.210 ,2,0,0.,24.0,0.,24.0,0.,24.0,0.,24.0
1986-01-26 07:34:33.210 ,3,1,0.,24.0,0.,24.0,0.,24.0,0.,24.0
1986-01-26 07:34:57.210 ,3,0,0.,24.0,0.,24.0,0.,24.0,0.,24.0
1986-01-26 07:35:21.210 ,4,1,0.,24.0,0.,24.0,0.,24.0,0.,24.0
1986-01-26 07:35:45.210 ,4,0,0.,24.0,0.,24.0,0.,24.0,0.,24.0
1986-01-26 07:36:09.210 ,5,1,0.,24.0,0.,24.0,0.,24.0,0.,24.0
1986-01-26 07:36:33.210 ,5,0,0.,24.0,0.,24.0,0.,24.0,0.,24.0
1986-01-26 07:36:57.210 ,6,1,0.,24.0,0.,24.0,0.,24.0,0.,24.0
1986-01-26 07:37:21.210 ,6,0,0.,24.0,0.,24.0,0.,24.0,0.,24.0
1986-01-26 07:37:45.210 ,7,1,0.,24.0,0.,24.0,0.,24.0,0.,24.0
1986-01-26 07:38:09.210 ,7,0,0.,24.0,0.,24.0,0.,24.0,0.,24.0
1986-01-26 07:38:33.210 ,7,1,0.,24.0,0.,24.0,0.,24.0,0.,24.0
1986-01-26 07:38:57.210 ,7,0,0.,24.0,0.,24.0,0.,24.0,0.,24.0
1986-01-26 07:39:21.210 ,6,1,0.,24.0,0.,24.0,0.,24.0,0.,24.0
1986-01-26 07:39:45.210 ,6,0,0.,24.0,0.,24.0,0.,24.0,0.,24.0
1986-01-26 07:40:09.210 ,5,1,0.,24.0,0.,24.0,0.,24.0,0.,24.0
1986-01-26 07:40:33.210 ,5,0,0.,24.0,0.,24.0,0.,24.0,0.,24.0
1986-01-26 07:40:57.210 ,4,1,0.,24.0,0.,24.0,0.,24.0,0.,24.0
1986-01-26 07:41:21.210 ,4,0,0.,24.0,0.,24.0,0.,24.0,0.,24.0
1986-01-26 07:41:45.210 ,3,1,0.,24.0,0.,24.0,0.,24.0,0.,24.0
1986-01-26 07:42:09.210 ,3,0,0.,24.0,0.,24.0,0.,24.0,0.,24.0
1986-01-26 07:42:33.210 ,2,1,0.,24.0,0.,24.0,0.,24.0,0.,24.0
1986-01-26 07:42:57.210 ,2,0,0.,24.0,0.,24.0,0.,24.0,0.,24.0
1986-01-26 07:43:21.210 ,1,1,0.,24.0,0.,24.0,0.,24.0,0.,24.0
1986-01-26 07:43:45.210 ,1,0,0.,24.0,0.,24.0,0.,24.0,0.,24.0
1986-01-26 07:44:09.210 ,0,1,0.,24.0,0.,24.0,0.,24.0,0.,24.0
1986-01-26 07:44:33.210 ,0,0,0.,24.0,0.,24.0,0.,24.0,0.,24.0
1986-01-26 07:44:57.210 ,0,1,0.,24.0,0.,24.0,0.,24.0,0.,24.0
1986-01-26 07:45:21.210 ,0,0,0.,24.0,0.,24.0,0.,24.0,0.,24.0
1986-01-26 07:45:45.210 ,1,1,0.,24.0,0.,24.0,0.,24.0,0.,24.0
1986-01-26 07:46:09.210 ,1,0,0.,24.0,0.,24.0,0.,24.0,0.,24.0
1986-01-26 07:46:33.210 ,2,1,0.,24.0,0.,24.0,0.,24.0,0.,24.0
1986-01-26 07:46:57.210 ,2,0,0.,24.0,0.,24.0,0.,24.0,0.,24.0
1986-01-26 07:47:21.210 ,3,1,0.,24.0,0.,24.0,0.,24.0,0.,24.0
1986-01-26 07:47:45.210 ,3,0,0.,24.0,0.,24.0,0.,24.0,0.,24.0
1986-01-26 07:48:09.210 ,4,1,0.,24.0,0.,24.0,0.,24.0,0.,24.0
1986-01-26 07:48:33.210 ,4,0,0.,24.0,0.,24.0,0.,24.0,0.,24.0
1986-01-26 07:48:57.210 ,5,1,0.,24.0,0.,24.0,0.,24.0,0.,24.0
1986-01-26 07:49:21.210 ,5,0,0.,24.0,0.,24.0,0.,24.0,0.,24.0
1986-01-26 07:49:45.210 ,6,1,0.,24.0,0.,24.0,0.,24.0,0.,24.0
1986-01-26 07:50:09.210 ,6,0,0.,24.0,0.,24.0,0.,24.0,0.,24.0
1986-01-26 07:50:33.210 ,7,1,0.,24.0,0.,24.0,0.,24.0,0.,24.0
1986-01-26 07:50:57.210 ,7,0,0.,24.0,0.,24.0,0.,24.0,0.,24.0
1986-01-26 07:51:21.210 ,7,1,0.,24.0,0.,24.0,0.,24.0,0.,24.0
1986-01-26 07:51:45.210 ,7,0,0.,24.0,0.,24.0,0.,24.0,0.,24.0
1986-01-26 07:52:09.210 ,6,1,0.,24.0,0.,24.0,0.,24.0,0.,24.0
1986-01-26 07:52:33.210 ,6,0,0.,24.0,0.,24.0,0.,24.0,0.,24.0
1986-01-26 07:52:57.210 ,5,1,0.,24.0,0.,24.0,0.,24.0,0.,24.0
1986-01-26 07:53:21.210 ,5,0,0.,24.0,0.,24.0,0.,24.0,0.,24.0
1986-01-26 07:53:45.210 ,4,1,0.,24.0,0.,24.0,0.,24.0,0.,24.0
1986-01-26 07:54:09.210 ,4,0,0.,24.0,0.,24.0,0.,24.0,0.,24.0
1986-01-26 07:54:33.210 ,3,1,0.,24.0,0.,24.0,0.,24.0,0.,24.0
1986-01-26 07:54:57.210 ,3,0,,0,,0,,0,,0
1986-01-26 07:55:21.210 ,2,1,0.,24.0,0.,24.0,0.,24.0,0.,24.0
1986-01-26 07:55:45.210 ,2,0,0.,24.0,0.,24.0,0.,24.0,0.,24.0
1986-01-26 07:56:09.210 ,1,1,0.,24.0,0.,24.0,0.,24.0,0.,24.0
1986-01-26 07:56:33.210 ,1,0,0.,24.0,0.,24.0,0.,24.0,0.,24.0
1986-01-26 07:56:57.210 ,0,1,0.,24.0,0.,24.0,0.,24.0,0.,24.0
1986-01-26 07:57:21.210 ,0,0,0.,24.0,0.,24.0,0.,24.0,0.,24.0
1986-01-26 07:57:45.210 ,0,1,0.,24.0,0.,24.0,0.,24.0,0.,24.0
1986-01-26 07:58:09.210 ,0,0,0.,24.0,0.,24.0,0.,24.0,0.,24.0
1986-01-26 07:58:33.210 ,1,1,0.,24.0,0.,24.0,0.,24.0,0.,24.0
1986-01-26 07:58:57.210 ,1,0,0.,24.0,0.,24.0,0.,24.0,0.,24.0
1986-01-26 07:59:21.210 ,2,1,0.,24.0,0.,24.0,0.,24.0,0.,24.0
1986-01-26 07:59:45.210 ,2,0,0.,24.0,0.,24.0,0.,24.0,0.,24.0
1986-01-26 08:00:09.210 ,3,1,0.,24.0,0.,24.0,0.,24.0,0.,24.0
1986-01-26 08:00:33.210 ,3,0,0.,24.0,0.,24.0,0.,24.0,0.,24.0
1986-01-26 08:00:57.210 ,4,1,0.,24.0,0.,24.0,0.,24.0,0.,24.0
1986-01-26 08:01:21.210 ,4,0,0.,24.0,0.,24.0,0.,24.0,0.,24.0
1986-01-26 08:01:45.210 ,5,1,0.,24.0,0.,24.0,0.,24.0,0.,24.0
1986-01-26 08:02:09.210 ,5,0,0.,24.0,0.,24.0,0.,24.0,0.,24.0
1986-01-26 08:02:33.210 ,6,1,0.,24.0,0.,24.0,0.,24.0,0.,24.0
1986-01-26 08:02:57.210 ,6,0,0.,24.0,0.,24.0,0.,24.0,0.,24.0
1986-01-26 08:03:21.210 ,7,1,0.,24.0,0.,24.0,0.,24.0,0.,24.0
1986-01-26 08:03:45.210 ,7,0,0.,24.0,0.,24.0,0.,24.0,0.,24.0
1986-01-26 08:04:09.210 ,7,1,0.,24.0,0.,24.0,0.,24.0,0.,24.0
1986-01-26 08:04:33.210 ,7,0,0.,24.0,0.,24.0,0.,24.0,0.,24.0
1986-01-26 08:04:57.210 ,6,1,0.,24.0,0.,24.0,0.,24.0,0.,24.0
1986-01-26 08:05:21.210 ,6,0,0.,24.0,0.,24.0,0.,24.0,0.,24.0
1986-01-26 08:05:45.210 ,5,1,0.,24.0,0.,24.0,0.,24.0,0.,24.0
1986-01-26 08:06:09.210 ,5,0,0.,24.0,0.,24.0,0.,24.0,0.,24.0
1986-01-26 08:06:33.210 ,4,1,0.,24.0,0.,24.0,0.,24.0,0.,24.0
1986-01-26 08:06:57.210 ,4,0,0.,24.0,0.,24.0,0.,24.0,0.,24.0
1986-01-26 08:07:21.210 ,3,1,0.,24.0,0.,24.0,0.,24.0,0.,24.0
1986-01-26 08:07:45.210 ,3,0,0.,24.0,0.,24.0,0.,24.0,0.,24.0
1986-01-26 08:08:09.210 ,2,1,0.,24.0,0.,24.0,0.,24.0,0.,24.0
1986-01-26 08:08:33.210 ,2,0,0.,24.0,0.,24.0,0.,24.0,0.,24.0
1986-01-26 08:08:57.210 ,1,1,0.,24.0,0.,24.0,0.,24.0,0.,24.0
1986-01-26 08:09:21.210 ,1,0,0.,24.0,0.,24.0,0.,24.0,0.,24.0
1986-01-26 08:09:45.210 ,0,1,0.,24.0,0.,24.0,0.,24.0,0.,24.0
1986-01-26 08:10:09.210 ,0,0,0.,24.0,0.,24.0,0.,24.0,0.,24.0
1986-01-26 08:10:33.210 ,0,1,0.,24.0,0.,24.0,0.,24.0,0.,24.0
1986-01-26 08:10:57.210 ,0,0,0.,24.0,0.,24.0,0.,24.0,0.,24.0
1986-01-26 08:11:21.210 ,1,1,0.,24.0,0.,24.0,0.,24.0,0.,24.0
1986-01-26 08:11:45.210 ,1,0,0.,24.0,0.,24.0,0.,24.0,0.,24.0
1986-01-26 08:12:09.210 ,2,1,0.,24.0,0.,24.0,0.,24.0,0.,24.0
1986-01-26 08:12:33.210 ,2,0,0.,24.0,0.,24.0,0.,24.0,0.,24.0
1986-01-26 08:12:57.210 ,3,1,0.,24.0,0.,24.0,0.,24.0,0.,24.0
1986-01-26 08:13:21.210 ,3,0,0.,24.0,0.,24.0,0.,24.0,0.,24.0
1986-01-26 08:13:45.210 ,4,1,0.,24.0,0.,24.0,0.,24.0,0.,24.0
1986-01-26 08:14:09.210 ,4,0,0.,24.0,0.,24.0,0.,24.0,0.,24.0
1986-01-26 08:14:33.210 ,5,1,0.,24.0,0.,24.0,0.,24.0,0.,24.0
1986-01-26 08:14:57.210 ,5,0,0.,24.0,0.,24.0,0.,24.0,0.,24.0
1986-01-26 08:15:21.210 ,6,1,0.,24.0,0.,24.0,0.,24.0,0.,24.0
1986-01-26 08:15:45.210 ,6,0,0.,24.0,0.,24.0,0.,24.0,0.,24.0
1986-01-26 08:16:09.210 ,7,1,0.,24.0,0.,24.0,0.,24.0,0.,24.0
1986-01-26 08:16:33.210 ,7,0,0.,24.0,0.,24.0,0.,24.0,0.,24.0
1986-01-26 08:16:57.210 ,7,1,0.,24.0,0.,24.0,0.,24.0,0.,24.0
1986-01-26 08:17:21.210 ,7,0,0.,24.0,0.,24.0,0.,24.0,0.,24.0
1986-01-26 08:17:45.210 ,6,1,0.,24.0,0.,24.0,0.,24.0,0.,24.0
1986-01-26 08:18:09.210 ,6,0,0.,24.0,0.,24.0,0.,24.0,0.,24.0
1986-01-26 08:18:33.210 ,5,1,0.,24.0,0.,24.0,0.,24.0,0.,24.0
1986-01-26 08:18:57.210 ,5,0,0.,24.0,0.,24.0,0.,24.0,0.,24.0
1986-01-26 08:19:21.210 ,4,1,0.,24.0,0.,24.0,0.,24.0,0.,24.0
1986-01-26 08:19:45.210 ,4,0,0.,24.0,0.,24.0,0.,24.0,0.,24.0
1986-01-26 08:20:09.210 ,3,1,0.,24.0,0.,24.0,0.,24.0,0.,24.0
1986-01-26 08:20:33.210 ,3,0,0.,24.0,0.,24.0,0.,24.0,0.,24.0
1986-01-26 08:20:57.210 ,2,1,0.,24.0,0.,24.0,0.,24.0,0.,24.0
1986-01-26 08:21:21.210 ,2,0,0.,24.0,0.,24.0,0.,24.0,0.,24.0
1986-01-26 08:21:45.210 ,1,1,0.,24.0,0.,24.0,0.,24.0,0.,24.0
1986-01-26 08:22:09.210 ,1,0,0.,24.0,0.,24.0,0.,24.0,0.,24.0
1986-01-26 08:22:33.210 ,0,1,0.,24.0,0.,24.0,0.,24.0,0.,24.0
1986-01-26 08:22:57.210 ,0,0,0.,24.0,0.,24.0,0.,24.0,0.,24.0
1986-01-26 08:23:21.210 ,0,1,0.,24.0,0.,24.0,0.,24.0,0.,24.0
1986-01-26 08:23:45.210 ,0,0,0.,24.0,0.,24.0,0.,24.0,0.,24.0
1986-01-26 08:24:09.210 ,1,1,0.,24.0,0.,24.0,0.,24.0,0.,24.0
1986-01-26 08:24:33.210 ,1,0,0.,24.0,0.,24.0,0.,24.0,0.,24.0
1986-01-26 08:24:57.210 ,2,1,0.,24.0,0.,24.0,0.,24.0,0.,24.0
1986-01-26 08:25:21.210 ,2,0,0.,24.0,0.,24.0,0.,24.0,0.,24.0
1986-01-26 08:25:45.210 ,3,1,0.,24.0,0.,24.0,0.,24.0,0.,24.0
1986-01-26 08:26:09.210 ,3,0,0.,24.0,0.,24.0,0.,24.0,0.,24.0
1986-01-26 08:26:33.210 ,4,1,0.,24.0,0.,24.0,0.,24.0,0.,24.0
1986-01-26 08:26:57.210 ,4,0,0.,24.0,0.,24.0,0.,24.0,0.,24.0
1986-01-26 08:27:21.210 ,5,1,0.,24.0,0.,24.0,0.,24.0,0.,24.0
1986-01-26 08:27:45.210 ,5,0,0.,24.0,0.,24.0,0.,24.0,0.,24.0
1986-01-26 08:28:09.210 ,6,1,0.,24.0,0.,24.0,0.,24.0,0.,24.0
1986-01-26 08:28:33.210 ,6,0,0.,24.0,0.,24.0,0.,24.0,0.,24.0
1986-01-26 08:28:57.210 ,7,1,0.,24.0,0.,24.0,0.,24.0,0.,24.0
1986-01-26 08:29:21.210 ,7,0,0.,24.0,0.,24.0,0.,24.0,0.,24.0
1986-01-26 08:29:45.210 ,7,1,0.,24.0,0.,24.0,0.,24.0,0.,24.0
1986-01-26 08:30:09.210 ,7,0,0.,24.0,0.,24.0,0.,24.0,0.,24.0
1986-01-26 08:30:33.210 ,6,1,0.,24.0,0.,24.0,0.,24.0,0.,24.0
1986-01-26 08:30:57.210 ,6,0,0.,24.0,0.,24.0,0.,24.0,0.,24.0
1986-01-26 08:31:21.210 ,5,1,0.,24.0,0.,24.0,0.,24.0,0.,24.0
1986-01-26 08:31:45.210 ,5,0,0.,24.0,0.,24.0,0.,24.0,0.,24.0
1986-01-26 08:32:09.210 ,4,1,0.,24.0,0.,24.0,0.,24.0,0.,24.0
1986-01-26 08:32:33.210 ,4,0,0.,24.0,0.,24.0,0.,24.0,0.,24.0
1986-01-26 08:32:57.210 ,3,1,0.,24.0,0.,24.0,0.,24.0,0.,24.0
1986-01-26 08:33:21.210 ,3,0,0.,24.0,0.,24.0,0.,24.0,0.,24.0
1986-01-26 08:33:45.210 ,2,1,0.,24.0,0.,24.0,0.,24.0,0.,24.0
1986-01-26 08:34:09.210 ,2,0,0.,24.0,0.,24.0,0.,24.0,0.,24.0
1986-01-26 08:34:33.210 ,1,1,0.,24.0,0.,24.0,0.,24.0,0.,24.0
1986-01-26 08:34:57.210 ,0,0,,0,,0,,0,,0
1986-01-26 08:35:50.010 ,0,0,0.,24.0,0.,24.0,0.,24.0,0.,24.0
1986-01-26 08:36:09.210 ,0,1,0.,24.0,0.,24.0,0.,24.0,0.,24.0
1986-01-26 08:36:33.210 ,0,0,0.,24.0,0.,24.0,0.,24.0,0.,24.0
1986-01-26 08:36:57.210 ,1,1,0.,24.0,0.,24.0,0.,24.0,0.,24.0
1986-01-26 08:37:21.210 ,1,0,0.,24.0,0.,24.0,0.,24.0,0.,24.0
1986-01-26 08:37:45.210 ,2,1,0.,24.0,0.,24.0,0.,24.0,0.,24.0
1986-01-26 08:38:09.210 ,2,0,0.,24.0,0.,24.0,0.,24.0,0.,24.0
1986-01-26 08:38:33.210 ,3,1,0.,24.0,0.,24.0,0.,24.0,0.,24.0
1986-01-26 08:38:57.210 ,3,0,0.,24.0,0.,24.0,0.,24.0,0.,24.0
1986-01-26 08:39:21.210 ,4,1,0.,24.0,0.,24.0,0.,24.0,0.,24.0
1986-01-26 08:39:45.210 ,4,0,0.,24.0,0.,24.0,0.,24.0,0.,24.0
1986-01-26 08:40:09.210 ,5,1,0.,24.0,0.,24.0,0.,24.0,0.,24.0
1986-01-26 08:40:33.210 ,5,0,0.,24.0,0.,24.0,0.,24.0,0.,24.0
1986-01-26 08:40:57.210 ,6,1,0.,24.0,0.,24.0,0.,24.0,0.,24.0
1986-01-26 08:41:21.210 ,6,0,0.,24.0,0.,24.0,0.,24.0,0.,24.0
1986-01-26 08:41:45.210 ,7,1,0.,24.0,0.,24.0,0.,24.0,0.,24.0
1986-01-26 08:42:09.210 ,7,0,0.,24.0,0.,24.0,0.,24.0,0.,24.0
1986-01-26 08:42:33.210 ,7,1,0.,24.0,0.,24.0,0.,24.0,0.,24.0
1986-01-26 08:42:57.210 ,7,0,0.,24.0,0.,24.0,0.,24.0,0.,24.0
1986-01-26 08:43:21.210 ,6,1,0.,24.0,0.,24.0,0.,24.0,0.,24.0
1986-01-26 08:43:45.210 ,6,0,0.,24.0,0.,24.0,0.,24.0,0.,24.0
1986-01-26 08:44:09.210 ,5,1,0.,24.0,0.,24.0,0.,24.0,0.,24.0
1986-01-26 08:44:33.210 ,5,0,0.,24.0,0.,24.0,0.,24.0,0.,24.0
1986-01-26 08:44:57.210 ,4,1,0.,24.0,0.,24.0,0.,24.0,0.,24.0
1986-01-26 08:45:21.210 ,4,0,0.,24.0,0.,24.0,0.,24.0,0.,24.0
1986-01-26 08:45:45.210 ,3,1,0.,24.0,0.,24.0,0.,24.0,0.,24.0
1986-01-26 08:46:09.210 ,3,0,0.,24.0,0.,24.0,0.,24.0,0.,24.0
1986-01-26 08:46:33.210 ,2,1,0.,24.0,0.,24.0,0.,24.0,0.,24.0
1986-01-26 08:46:57.210 ,2,0,0.,24.0,0.,24.0,0.,24.0,0.,24.0
1986-01-26 08:47:21.210 ,1,1,0.,24.0,0.,24.0,0.,24.0,0.,24.0
1986-01-26 08:47:45.210 ,1,0,0.,24.0,0.,24.0,0.,24.0,0.,24.0
1986-01-26 08:48:09.210 ,0,1,0.,24.0,0.,24.0,0.,24.0,0.,24.0
1986-01-26 08:48:33.210 ,0,0,0.,24.0,0.,24.0,0.,24.0,0.,24.0
1986-01-26 08:48:57.210 ,0,1,0.,24.0,0.,24.0,0.,24.0,0.,24.0
1986-01-26 08:49:21.210 ,0,0,0.,24.0,0.,24.0,0.,24.0,0.,24.0
1986-01-26 08:49:45.210 ,1,1,0.,24.0,0.,24.0,0.,24.0,0.,24.0
1986-01-26 08:50:09.210 ,1,0,0.,24.0,0.,24.0,0.,24.0,0.,24.0
1986-01-26 08:50:33.210 ,2,1,0.,24.0,0.,24.0,0.,24.0,0.,24.0
1986-01-26 08:50:57.210 ,2,0,0.,24.0,0.,24.0,0.,24.0,0.,24.0
1986-01-26 08:51:21.210 ,3,1,0.,24.0,0.,24.0,0.,24.0,0.,24.0
1986-01-26 08:51:45.210 ,3,0,0.,24.0,0.,24.0,0.,24.0,0.,24.0
1986-01-26 08:52:09.210 ,4,1,0.,24.0,0.,24.0,0.,24.0,0.,24.0
1986-01-26 08:52:33.210 ,4,0,0.,24.0,0.,24.0,0.,24.0,0.,24.0
1986-01-26 08:52:57.210 ,5,1,0.,24.0,0.,24.0,0.,24.0,0.,24.0
1986-01-26 08:53:21.210 ,5,0,0.,24.0,0.,24.0,0.,24.0,0.,24.0
1986-01-26 08:53:45.210 ,6,1,0.,24.0,0.,24.0,0.,24.0,0.,24.0
1986-01-26 08:54:09.210 ,6,0,0.,24.0,0.,24.0,0.,24.0,0.,24.0
1986-01-26 08:54:33.210 ,7,1,0.,24.0,0.,24.0,0.,24.0,0.,24.0
1986-01-26 08:54:57.210 ,7,0,0.,24.0,0.,24.0,0.,24.0,0.,24.0
1986-01-26 08:55:21.210 ,7,1,0.,24.0,0.,24.0,0.,24.0,0.,24.0